Date String (YYYY-MM-DD hh:mm:ss) UTC,Instrument flags,absolute air pressure of the measurement (hPa),sample flow rate (lpm),inlet stack bypass flow (lpm),air temperature of the measurement (°C),ambient temperature measured by the external sensor (°C),aerosol sample conditioner tube jacket temperature (°C),OPC LED temperature (°C),internal box temperature (°C),relative humidity of the measurement (%),span deviation,mass concentration of particles derived from Lorenz-Mie calculation of OPC scattering (μg/m³),mass concentration of particles derived from Lorenz-Mie calculation of OPC scattering (μg/m³),mass concentration of particles derived from Lorenz-Mie calculation of OPC scattering (μg/m³)
DateTimeUTC,F1_M11,P_M11,Q1_M11,Q2_M11,T1_M11,T2_M11,T3_M11,T4_M11,T5_M11,U1_M11,ZSPAN_M11,X0_M11,X2_M11,X1_M11
2024-02-06 10:00:00,SystemResetWarning,0825.7,5.00,000.00,019.5,018.8,000.0,027.9,021.2,18.1,0000.0,0005.13,0002.21,0001.94
2024-02-06 10:01:00,SystemResetWarning,0825.8,4.99,000.00,019.5,018.8,000.0,027.9,021.2,18.1,0000.0,0005.02,0002.22,0001.98
2024-02-06 10:02:00,SystemResetWarning,0825.8,5.00,000.00,019.5,018.8,000.0,027.9,021.2,18.0,0000.0,0004.17,0002.20,0001.99
2024-02-06 10:03:00,SystemResetWarning,0825.8,5.00,000.00,019.5,018.8,000.0,027.9,021.2,18.0,0000.0,0004.12,0002.19,0001.98
2024-02-06 10:04:00,SystemResetWarning,0825.7,5.01,000.00,019.5,018.8,000.0,027.9,021.2,17.9,0000.0,0004.12,0002.19,0001.97
2024-02-06 10:05:00,SystemResetWarning,0825.8,5.00,000.00,019.5,018.8,000.0,027.9,021.2,17.9,0000.0,0004.12,0002.19,0001.96
2024-02-06 10:06:00,SystemResetWarning,0825.8,5.00,000.00,019.5,018.8,000.0,027.9,021.2,17.9,0000.0,0004.05,0002.17,0001.95
2024-02-06 10:07:00,SystemResetWarning,0825.8,5.00,000.00,019.5,018.8,000.0,027.9,021.2,17.9,0000.0,0004.02,0002.13,0001.93
2024-02-06 10:08:00,SystemResetWarning,0825.8,5.00,000.00,019.5,018.8,000.0,027.9,021.1,17.9,0000.0,0002.82,0002.09,0001.89
2024-02-06 10:09:00,SystemResetWarning,0825.8,5.00,000.00,019.5,018.8,000.0,027.9,021.1,17.6,0000.0,0002.58,0002.05,0001.88
2024-02-06 10:10:00,SystemResetWarning,0825.9,5.00,000.00,019.5,018.8,000.0,027.9,021.1,17.5,0000.0,0002.55,0002.02,0001.84
2024-02-06 10:11:00,SystemResetWarning,0825.9,4.99,000.00,019.5,018.8,000.0,027.8,021.1,17.4,0000.0,0002.50,0002.00,0001.82
2024-02-06 10:12:00,SystemResetWarning,0825.9,5.00,000.00,019.5,018.8,000.0,027.8,021.1,17.4,0000.0,0002.50,0001.97,0001.79
2024-02-06 10:13:00,SystemResetWarning,0825.9,5.00,000.00,019.4,018.8,000.0,027.8,021.1,17.3,0000.0,0002.45,0001.91,0001.71
2024-02-06 10:14:00,SystemResetWarning,0825.9,5.02,000.00,019.4,018.7,000.0,027.8,021.1,17.5,0000.0,0002.33,0001.81,0001.62
2024-02-06 10:15:00,SystemResetWarning,0825.9,5.01,000.00,019.4,018.7,000.0,027.8,021.1,17.5,0000.0,0002.25,0001.71,0001.54
2024-02-06 10:16:00,SystemResetWarning,0825.8,5.00,000.00,019.4,018.7,000.0,027.8,021.1,17.7,0000.0,0002.20,0001.64,0001.47
2024-02-06 10:17:00,SystemResetWarning,0825.8,5.00,000.00,019.4,018.7,000.0,027.8,021.1,17.4,0000.0,0002.08,0001.55,0001.39
2024-02-06 10:18:00,SystemResetWarning,0825.8,4.99,000.00,019.4,018.7,000.0,027.8,021.1,17.1,0000.0,0001.96,0001.46,0001.31
2024-02-06 10:19:00,SystemResetWarning,0825.7,4.99,000.00,019.4,018.7,000.0,027.8,021.1,17.0,0000.0,0001.84,0001.38,0001.24
2024-02-06 10:20:00,SystemResetWarning,0825.7,5.01,000.00,019.4,018.7,000.0,027.8,021.1,17.2,0000.0,0001.80,0001.31,0001.15
2024-02-06 10:21:00,SystemResetWarning,0825.7,5.01,000.00,019.4,018.7,000.0,027.8,021.1,17.1,0000.0,0001.74,0001.25,0001.08
2024-02-06 10:22:00,SystemResetWarning,0825.7,5.01,000.00,019.4,018.7,000.0,027.8,021.0,17.1,0000.0,0001.60,0001.15,0001.00
2024-02-06 10:23:00,SystemResetWarning,0825.7,4.99,000.00,019.4,018.7,000.0,027.8,021.0,17.4,0000.0,0001.47,0001.05,0000.92
2024-02-06 10:24:00,SystemResetWarning,0825.6,5.00,000.00,019.4,018.7,000.0,027.8,021.0,17.5,0000.0,0001.39,0001.00,0000.87
2024-02-06 10:25:00,SystemResetWarning,0825.6,5.00,000.00,019.4,018.7,000.0,027.8,021.0,17.6,0000.0,0001.39,0001.00,0000.88
2024-02-06 10:26:00,SystemResetWarning,0825.6,4.99,000.00,019.4,018.7,000.0,027.8,021.0,17.6,0000.0,0001.33,0000.98,0000.86
2024-02-06 10:27:00,SystemResetWarning,0825.6,5.00,000.00,019.4,018.7,000.0,027.8,021.0,17.7,0000.0,0001.22,0000.96,0000.85
2024-02-06 10:28:00,SystemResetWarning,0825.6,5.01,000.00,019.4,018.7,000.0,027.8,021.0,18.0,0000.0,0001.23,0000.95,0000.85
2024-02-06 10:29:00,SystemResetWarning,0825.6,5.00,000.00,019.4,018.7,000.0,027.8,021.0,17.9,0000.0,0001.29,0000.98,0000.86
2024-02-06 10:30:00,SystemResetWarning,0825.6,5.00,000.00,019.3,018.7,000.0,027.7,021.0,17.6,0000.0,0001.35,0001.02,0000.88
2024-02-06 10:31:00,SystemResetWarning,0825.5,4.99,000.00,019.3,018.7,000.0,027.7,021.0,17.5,0000.0,0001.38,0001.04,0000.90
2024-02-06 10:32:00,SystemResetWarning,0825.5,5.00,000.00,019.3,018.6,000.0,027.7,021.0,17.6,0000.0,0001.58,0001.11,0000.93
2024-02-06 10:33:00,SystemResetWarning,0825.5,4.99,000.00,019.3,018.6,000.0,027.7,021.0,17.6,0000.0,0001.75,0001.17,0000.95
2024-02-06 10:34:00,SystemResetWarning,0825.5,5.01,000.00,019.3,018.6,000.0,027.7,021.0,17.5,0000.0,0001.82,0001.22,0000.98
2024-02-06 10:35:00,SystemResetWarning,0825.5,5.01,000.00,019.3,018.6,000.0,027.7,021.0,17.5,0000.0,0001.95,0001.25,0001.01
2024-02-06 10:36:00,SystemResetWarning,0825.6,5.00,000.00,019.3,018.6,000.0,027.7,021.0,17.6,0000.0,0002.07,0001.31,0001.05
2024-02-06 10:37:00,SystemResetWarning,0825.5,4.99,000.00,019.3,018.6,000.0,027.7,021.0,17.7,0000.0,0002.11,0001.34,0001.08
2024-02-06 10:38:00,SystemResetWarning,0825.6,4.99,000.00,019.3,018.6,000.0,027.7,021.0,17.6,0000.0,0003.33,0001.39,0001.11
2024-02-06 10:39:00,SystemResetWarning,0825.6,5.01,000.00,019.3,018.6,000.0,027.7,020.9,17.9,0000.0,0004.80,0001.41,0001.13
2024-02-06 10:40:00,SystemResetWarning,0825.6,5.01,000.00,019.3,018.6,000.0,027.7,020.9,18.1,0000.0,0007.05,0001.48,0001.16
2024-02-06 10:41:00,SystemResetWarning,0825.6,5.00,000.00,019.3,018.6,000.0,027.7,020.9,18.6,0000.0,0007.28,0001.53,0001.17
2024-02-06 10:42:00,SystemResetWarning,0825.5,4.99,000.00,019.3,018.6,000.0,027.7,020.9,18.9,0000.0,0007.70,0001.55,0001.18
2024-02-06 10:43:00,SystemResetWarning,0825.5,4.99,000.00,019.3,018.6,000.0,027.6,020.9,19.0,0000.0,0008.10,0001.58,0001.21
2024-02-06 10:44:00,SystemResetWarning,0825.6,4.99,000.00,019.3,018.6,000.0,027.6,020.9,18.8,0000.0,0008.79,0001.64,0001.25
2024-02-06 10:45:00,SystemResetWarning,0825.5,5.00,000.00,019.2,018.6,000.0,027.6,020.9,18.8,0000.0,0008.94,0001.74,0001.29
2024-02-06 10:46:00,SystemResetWarning,0825.5,5.00,000.00,019.2,018.6,000.0,027.6,020.9,18.9,0000.0,0010.23,0001.86,0001.33
2024-02-06 10:47:00,SystemResetWarning,0825.6,5.00,000.00,019.2,018.6,000.0,027.6,020.9,18.8,0000.0,0010.96,0001.96,0001.36
2024-02-06 10:48:00,SystemResetWarning,0825.6,5.01,000.00,019.2,018.6,000.0,027.6,020.9,18.7,0000.0,0011.44,0002.01,0001.40
2024-02-06 10:49:00,SystemResetWarning,0825.5,4.99,000.00,019.2,018.5,000.0,027.6,020.8,18.7,0000.0,0011.35,0002.09,0001.43
2024-02-06 10:50:00,SystemResetWarning,0825.5,5.00,000.00,019.2,018.5,000.0,027.6,020.8,18.6,0000.0,0010.58,0002.18,0001.45
2024-02-06 10:51:00,SystemResetWarning,0825.5,5.00,000.00,019.2,018.5,000.0,027.6,020.9,18.5,0000.0,0009.41,0002.17,0001.46
2024-02-06 10:52:00,SystemResetWarning,0825.5,5.00,000.00,019.2,018.5,000.0,027.6,020.9,18.5,0000.0,0009.75,0002.20,0001.47
2024-02-06 10:53:00,SystemResetWarning,0825.6,5.01,000.00,019.2,018.5,000.0,027.6,020.8,18.4,0000.0,0009.61,0002.22,0001.49
2024-02-06 10:54:00,SystemResetWarning,0825.5,5.00,000.00,019.2,018.5,000.0,027.6,020.8,18.2,0000.0,0009.94,0002.21,0001.49
2024-02-06 10:55:00,SystemResetWarning,0825.5,5.00,000.00,019.2,018.5,000.0,027.6,020.8,18.0,0000.0,0009.21,0002.22,0001.49
2024-02-06 10:56:00,SystemResetWarning,0825.5,4.99,000.00,019.2,018.5,000.0,027.6,020.8,17.9,0000.0,0009.09,0002.18,0001.48
2024-02-06 10:57:00,SystemResetWarning,0825.6,5.00,000.00,019.2,018.5,000.0,027.6,020.8,18.0,0000.0,0008.13,0002.08,0001.44
2024-02-06 10:58:00,SystemResetWarning,0825.6,4.99,000.00,019.2,018.5,000.0,027.6,020.8,18.0,0000.0,0006.83,0001.97,0001.40
2024-02-06 10:59:00,SystemResetWarning,0825.6,5.00,000.00,019.2,018.5,000.0,027.6,020.8,18.0,0000.0,0006.18,0001.93,0001.36
